Location: Caixon
(43.4106°N, 0.0273°E)
Time: 13:53:15
(UTC+00:00)

IRIDIUM 103 - Pass Details

Date: 16 October 2021
Orbit: 776 x 779 km, 86.4° (Epoch: 29 November)

Event Time Altitude Azimuth Distance (km) Brightness Sun altitude
Exits shadow 03:45:51 51° 157° (SSE) 977 4.8 -27.7°
Maximum altitude 03:47:07 73° 91° (E) 817 4.4 -27.5°
Drops below altitude 10° 03:52:21 10° 7° (N) 2,342 7.0 -26.5°
Sets 03:54:43 0° 5° (N) 3,274 7.8 -26.1°
